| time (UTC) | temp F | wind direction | speed knots | gust knots | rain 1hr in | rain 24hr in | rain mn in | humidity % | barometer mb |
| 20260510184602 | 85 | 136 | 0.0 | 0.0 | 0.00 | 0.00 | 0.00 | 62 | 1008.7 |
| 20260510183103 | 85 | 81 | 0.0 | 0.0 | 0.00 | 0.00 | 0.00 | 60 | 1008.8 |
| 20260510181607 | 84 | 132 | 0.0 | 0.0 | 0.00 | 0.00 | 0.00 | 60 | 1009.1 |
| 20260510180122 | 84 | 126 | 0.0 | 0.0 | 0.00 | 0.00 | 0.00 | 62 | 1009.3 |
| 20260510174602 | 84 | 135 | 0.0 | 0.0 | 0.00 | 0.00 | 0.00 | 60 | 1009.4 |
| 20260510173104 | 84 | 121 | 0.0 | 0.0 | 0.00 | 0.00 | 0.00 | 65 | 1009.3 |
| 20260510170005 | 83 | 162 | 0.0 | 0.0 | 0.00 | 0.00 | 0.00 | 59 | 1009.4 |
| 20260510163137 | 82 | 165 | 0.0 | 0.0 | 0.00 | 0.00 | 0.00 | 64 | 1009.2 |
| 20260510161607 | 80 | 173 | 0.0 | 0.0 | 0.00 | 0.00 | 0.00 | 68 | 1009.3 |
| 20260510153008 | 78 | 191 | 0.0 | 0.0 | 0.00 | 0.00 | 0.00 | 71 | 1008.9 |
| 20260510151503 | 77 | 186 | 0.0 | 0.0 | 0.00 | 0.00 | 0.00 | 73 | 1008.7 |
| 20260510144604 | 75 | 202 | 0.0 | 0.0 | 0.00 | 0.00 | 0.00 | 74 | 1008.9 |
| 20260510143111 | 75 | 196 | 0.0 | 0.0 | 0.00 | 0.00 | 0.00 | 74 | 1008.8 |
| 20260510141503 | 74 | 207 | 0.0 | 0.0 | 0.00 | 0.00 | 0.00 | 76 | 1008.8 |
| 20260510134503 | 72 | 194 | 0.0 | 0.0 | 0.00 | 0.00 | 0.00 | 76 | 1008.4 |
| 20260510133023 | 71 | 193 | 0.0 | 0.0 | 0.00 | 0.00 | 0.00 | 75 | 1008.5 |
| 20260510131502 | 70 | 193 | 0.0 | 0.0 | 0.00 | 0.00 | 0.00 | 73 | 1008.3 |
| 20260510130006 | 69 | 192 | 0.0 | 0.0 | 0.00 | 0.00 | 0.00 | 71 | 1007.9 |
| 20260510123107 | 68 | 191 | 0.0 | 0.0 | 0.00 | 0.00 | 0.00 | 69 | 1008.2 |
| 20260510121504 | 67 | 190 | 0.0 | 0.0 | 0.00 | 0.00 | 0.00 | 70 | 1007.9 |
| 20260510113002 | 67 | 190 | 0.0 | 0.0 | 0.00 | 0.00 | 0.00 | 77 | 1007.6 |
| 20260510111504 | 68 | 190 | 0.0 | 0.0 | 0.00 | 0.00 | 0.00 | 78 | 1007.4 |
| 20260510110014 | 69 | 191 | 0.0 | 0.0 | 0.00 | 0.00 | 0.00 | 79 | 1007.3 |
| 20260510103002 | 69 | 191 | 0.0 | 0.0 | 0.00 | 0.00 | 0.00 | 80 | 1007.0 |
| 20260510100003 | 70 | 191 | 0.0 | 0.0 | 0.00 | 0.00 | 0.00 | 81 | 1007.4 |
| 20260510094545 | 70 | 191 | 0.0 | 0.0 | 0.00 | 0.00 | 0.00 | 81 | 1007.3 |
| 20260510093055 | 70 | 192 | 0.0 | 0.0 | 0.00 | 0.00 | 0.00 | 81 | 1007.2 |
| 20260510091540 | 71 | 192 | 0.0 | 0.0 | 0.00 | 0.00 | 0.00 | 80 | 1007.0 |
| 20260510090045 | 71 | 193 | 0.0 | 0.0 | 0.00 | 0.00 | 0.00 | 80 | 1006.8 |
| 20260510084539 | 71 | 193 | 0.0 | 0.0 | 0.00 | 0.00 | 0.00 | 79 | 1006.7 |
| 20260510083045 | 72 | 194 | 0.0 | 0.0 | 0.00 | 0.00 | 0.00 | 79 | 1006.6 |
| 20260510081547 | 71 | 191 | 0.0 | 0.0 | 0.00 | 0.00 | 0.00 | 78 | 1006.5 |
| 20260510080036 | 71 | 180 | 0.0 | 0.0 | 0.00 | 0.00 | 0.00 | 78 | 1006.5 |
| 20260510074535 | 72 | 179 | 0.0 | 0.0 | 0.00 | 0.00 | 0.00 | 78 | 1006.9 |
| 20260510073049 | 72 | 178 | 0.0 | 0.0 | 0.00 | 0.00 | 0.00 | 78 | 1006.9 |
| 20260510071531 | 72 | 193 | 0.0 | 0.0 | 0.00 | 0.00 | 0.00 | 78 | 1006.9 |
| 20260510070036 | 72 | 182 | 0.0 | 0.0 | 0.00 | 0.00 | 0.00 | 78 | 1006.9 |
| 20260510064545 | 72 | 178 | 0.0 | 0.0 | 0.00 | 0.00 | 0.00 | 79 | 1007.2 |
| 20260510063103 | 73 | 178 | 0.0 | 0.0 | 0.00 | 0.00 | 0.00 | 79 | 1007.3 |
| 20260510061508 | 73 | 178 | 0.0 | 0.0 | 0.00 | 0.00 | 0.00 | 78 | 1007.3 |
| 20260510054504 | 74 | 177 | 0.0 | 0.0 | 0.00 | 0.00 | 0.00 | 76 | 1007.2 |
| 20260510051505 | 75 | 178 | 0.0 | 0.0 | 0.00 | 0.00 | 0.00 | 73 | 1007.0 |
| 20260510044505 | 75 | 178 | 0.0 | 0.0 | 0.00 | 0.00 | 0.01 | 73 | 1006.9 |
| 20260510040005 | 75 | 178 | 0.0 | 0.0 | 0.00 | 0.00 | 0.01 | 72 | 1007.0 |
| 20260510034559 | 75 | 178 | 0.0 | 0.0 | 0.00 | 0.00 | 0.01 | 74 | 1007.0 |
| 20260510033002 | 74 | 178 | 0.0 | 0.0 | 0.00 | 0.00 | 0.01 | 77 | 1007.0 |
| 20260510031505 | 75 | 178 | 0.0 | 0.0 | 0.00 | 0.00 | 0.01 | 77 | 1006.9 |
| 20260510030002 | 75 | 178 | 0.0 | 0.0 | 0.00 | 0.00 | 0.01 | 77 | 1007.1 |
| 20260510024557 | 75 | 178 | 0.0 | 0.0 | 0.00 | 0.00 | 0.01 | 76 | 1006.8 |
| 20260510023003 | 76 | 178 | 0.0 | 0.0 | 0.00 | 0.00 | 0.01 | 74 | 1006.5 |
| 20260510021603 | 77 | 178 | 0.0 | 0.0 | 0.00 | 0.00 | 0.01 | 72 | 1006.2 |
| 20260510020104 | 78 | 178 | 0.0 | 0.0 | 0.00 | 0.00 | 0.01 | 70 | 1006.0 |
| 20260510014502 | 80 | 178 | 0.0 | 0.0 | 0.00 | 0.00 | 0.01 | 65 | 1005.7 |
| 20260510011503 | 82 | 178 | 0.0 | 0.0 | 0.00 | 0.00 | 0.01 | 61 | 1005.1 |
| 20260510004554 | 83 | 178 | 0.0 | 0.0 | 0.00 | 0.00 | 0.01 | 59 | 1004.4 |
| 20260510001505 | 85 | 192 | 0.0 | 0.0 | 0.00 | 0.00 | 0.01 | 55 | 1004.2 |
| 20260509234617 | 86 | 194 | 0.0 | 0.0 | 0.00 | 0.00 | 0.01 | 49 | 1004.2 |
| 20260509233006 | 87 | 194 | 0.0 | 0.0 | 0.00 | 0.00 | 0.01 | 51 | 1004.1 |
| 20260509230016 | 86 | 195 | 0.0 | 0.0 | 0.00 | 0.00 | 0.01 | 50 | 1004.0 |
| 20260509224503 | 87 | 195 | 0.0 | 0.0 | 0.00 | 0.00 | 0.01 | 48 | 1004.2 |
| 20260509223010 | 87 | 195 | 0.0 | 0.0 | 0.00 | 0.00 | 0.01 | 49 | 1004.0 |
| 20260509221515 | 87 | 195 | 0.0 | 0.0 | 0.00 | 0.00 | 0.01 | 52 | 1004.2 |
| 20260509220002 | 85 | 195 | 0.0 | 0.0 | 0.00 | 0.00 | 0.01 | 52 | 1004.2 |
| 20260509214533 | 87 | 195 | 0.0 | 0.0 | 0.00 | 0.00 | 0.01 | 49 | 1004.3 |
| 20260509213103 | 87 | 206 | 0.0 | 0.0 | 0.00 | 0.00 | 0.01 | 50 | 1004.3 |
| 20260509211508 | 86 | 206 | 0.0 | 0.0 | 0.00 | 0.00 | 0.01 | 48 | 1004.6 |
| 20260509210016 | 87 | 207 | 0.0 | 0.0 | 0.00 | 0.00 | 0.01 | 49 | 1004.5 |
| 20260509204531 | 87 | 206 | 0.0 | 0.0 | 0.00 | 0.00 | 0.01 | 49 | 1004.7 |
| 20260509203004 | 86 | 200 | 0.0 | 0.0 | 0.00 | 0.00 | 0.01 | 54 | 1005.1 |
| 20260509201504 | 86 | 211 | 0.0 | 0.0 | 0.00 | 0.00 | 0.01 | 57 | 1005.5 |
| 20260509200111 | 85 | 222 | 0.0 | 0.0 | 0.00 | 0.00 | 0.01 | 55 | 1005.8 |
| 20260509194506 | 86 | 222 | 0.0 | 0.0 | 0.00 | 0.00 | 0.01 | 55 | 1005.8 |
| 20260509193117 | 85 | 222 | 0.0 | 0.0 | 0.00 | 0.00 | 0.01 | 58 | 1006.1 |